Probability
50 45 37 32 29 24 20 22 25 28 29 27 27 30 31 32 31 28 24 25 25 26 27 25 21 17 16 16 16 17 17 17 17 17 19 23 25 24 24 24 20 14 11
46 43 38 36 34 28 24 25 27 28 28 27 28 30 32 31 31 29 26 25 25 25 25 24 21 19 19 19 19 19 19 19 19 19 21 25 26 26 28 26 21 15 13
39 38 38 41 40 35 30 29 29 28 27 27 28 28 29 28 27 26 26 26 26 25 24 21 20 20 21 22 21 21 20 21 21 21 21 22 24 27 29 27 22 18 16
39 38 39 42 43 39 34 32 31 29 27 26 26 25 24 22 21 21 24 26 26 24 21 20 18 18 18 18 19 19 20 21 22 21 20 19 20 23 24 23 21 20 19
43 41 41 42 41 39 35 33 33 31 27 26 25 23 20 17 14 16 20 25 26 23 21 20 18 14 13 13 13 15 17 20 21 21 20 19 19 19 18 16 17 19 19
46 45 45 44 43 41 38 36 37 36 33 29 26 23 19 13 9 9 15 22 25 24 24 24 20 14 12 13 12 12 13 15 18 20 20 18 18 18 16 13 13 15 17
48 48 49 49 48 47 44 42 43 43 38 33 29 25 21 14 7 5 10 18 22 24 25 26 22 16 15 15 14 11 10 11 13 15 16 17 18 20 19 17 15 15 16
48 49 51 52 52 51 49 46 45 44 40 35 31 27 23 16 9 5 7 16 21 22 23 24 22 19 16 15 14 13 12 12 11 10 12 14 16 17 17 18 18 17 16
46 47 48 50 51 51 50 46 41 39 38 35 33 29 25 18 11 5 8 18 24 22 21 21 20 18 15 14 14 14 15 15 12 9 9 10 10 11 11 13 16 16 15
42 44 46 48 51 51 49 45 40 36 34 33 31 30 27 22 14 7 9 20 26 23 21 21 19 16 12 11 12 14 16 16 15 12 9 8 8 9 9 10 13 15 15
40 42 44 46 47 47 46 44 40 35 31 30 29 27 26 23 17 9 9 17 23 21 19 20 18 12 8 6 8 11 13 14 14 12 9 9 11 12 12 11 13 14 15
41 41 43 43 41 41 42 42 39 35 30 27 25 23 23 23 19 12 8 9 15 17 18 17 13 8 4 2 3 5 6 7 10 10 8 10 12 13 14 13 13 15 17
40 41 42 42 39 40 40 40 37 34 28 24 22 21 21 22 22 17 10 5 7 11 14 13 7 4 2 1 1 1 2 5 9 9 8 9 10 12 13 13 14 17 19
36 37 39 39 38 40 40 38 35 31 26 23 22 22 22 23 23 20 14 9 7 10 12 11 7 4 4 4 4 3 4 8 10 10 10 8 9 11 12 12 13 14 15
30 31 32 33 34 37 37 33 29 25 21 19 18 19 21 21 18 15 13 11 10 10 11 12 11 10 9 9 8 8 8 9 10 11 10 8 8 9 11 10 9 9 9
28 28 27 26 28 31 30 25 21 17 14 11 10 12 14 13 10 7 7 7 6 6 8 11 13 13 12 11 11 11 10 10 10 11 10 8 8 8 9 8 7 7 7
26 25 24 23 22 23 23 21 18 14 11 9 7 5 5 4 3 2 1 2 2 3 6 8 10 12 12 12 11 11 10 10 11 12 10 8 7 7 7 7 6 7 7
22 21 20 20 18 18 20 20 18 16 15 14 10 5 1 0 0 0 0 2 4 5 7 7 8 9 10 11 12 11 10 10 12 12 10 8 7 6 6 6 6 6 6
19 17 16 16 15 16 18 18 18 18 18 18 15 8 3 1 1 1 2 5 7 8 8 8 7 7 9 11 11 10 9 9 11 11 10 8 7 6 6 6 6 5 4
17 13 11 10 9 11 14 15 17 18 19 19 17 11 7 5 4 4 5 7 8 8 8 8 7 7 8 9 9 7 6 7 7 7 8 8 6 6 5 5 4 3 2
12 10 7 5 5 7 11 14 16 16 18 19 17 12 8 7 7 7 7 7 8 8 8 9 8 7 7 7 6 4 4 4 4 4 5 5 5 4 3 2 1 1 1
10 9 6 5 6 8 10 13 14 15 15 16 14 11 8 8 8 9 9 8 7 7 7 8 7 7 7 7 6 4 4 3 3 3 4 4 3 3 2 1 0 0 0
8 6 5 6 8 9 10 11 12 12 11 10 10 9 9 9 8 9 8 8 7 5 3 4 5 6 7 7 7 6 5 4 3 4 4 4 3 3 2 0 0 0 0
5 4 4 5 7 8 8 9 9 8 6 6 6 7 8 7 5 5 5 5 4 3 2 2 2 3 5 5 6 5 4 3 3 3 4 3 3 3 2 1 1 1 1
3 3 4 5 6 6 6 6 6 4 3 3 3 3 3 2 2 1 1 1 1 2 1 0 0 1 1 2 2 2 1 1 1 2 3 3 3 3 3 3 2 2 2
3 3 4 4 5 5 4 4 3 2 2 2 1 0 0 0 0 0 0 0 0 1 0 0 0 0 0 0 0 1 0 0 0 1 3 3 3 3 3 3 3 3 3
Wind_Speed
5 4 2 3 2 1 1 1 1 1 1 1 1 2 2 1 1 1 2 2 2 2 2 1 1 2 2 3 2 2 2 1 3 3 2 1 1 1 2 2 3 4 4
5 4 3 3 3 2 1 1 0 0 0 1 1 1 2 2 1 1 2 2 2 2 2 2 2 2 2 2 3 3 2 2 2 4 3 2 2 2 2 3 3 3 3
5 5 4 3 2 2 1 1 0 0 1 1 1 1 2 2 2 1 2 2 2 2 2 2 3 2 3 2 2 3 3 4 2 3 4 2 2 2 2 3 3 2 3
4 4 3 3 3 2 2 2 1 1 1 1 1 1 1 1 2 2 2 1 2 2 2 2 2 2 3 3 3 3 3 3 3 3 3 3 2 2 1 2 2 2 3
3 3 3 3 3 2 1 1 1 1 2 1 1 1 1 1 2 3 2 2 2 2 2 2 2 2 3 2 3 3 3 3 3 3 3 3 2 2 2 2 3 3 3
1 2 2 2 2 2 2 1 1 1 1 1 1 1 1 2 4 4 2 2 2 2 2 2 2 1 2 3 3 4 4 4 4 3 3 3 3 2 3 3 3 3 3
1 1 1 2 2 2 2 1 1 1 1 1 0 1 1 2 3 3 3 2 2 2 2 3 3 3 3 3 3 4 5 6 5 4 4 4 4 3 3 4 4 4 5
1 1 1 1 1 1 1 1 1 0 0 0 0 0 0 1 3 3 3 2 2 2 2 2 2 2 4 4 4 3 3 3 4 3 3 5 4 3 3 3 4 5 5
1 1 1 1 1 1 1 1 1 1 1 1 1 1 0 1 2 2 2 3 2 2 2 2 2 1 3 4 3 3 4 4 4 5 5 5 5 6 4 2 3 3 4
0 0 1 1 1 1 1 1 1 1 1 1 1 1 1 1 2 2 3 3 2 2 1 1 1 2 2 3 3 3 4 5 5 5 4 4 5 5 5 4 3 4 3
1 1 1 1 1 1 1 1 1 1 1 2 2 2 2 2 2 2 2 2 2 2 2 1 0 1 2 3 3 4 6 5 4 4 4 3 3 3 3 3 3 3 3
1 1 1 0 1 1 1 1 1 2 2 3 3 3 2 2 2 3 4 4 3 2 2 2 1 2 4 5 4 5 7 5 4 3 3 3 3 2 2 2 3 3 3
0 0 0 0 1 1 1 2 2 2 3 3 3 3 2 2 2 3 4 4 4 2 2 4 5 5 5 5 6 6 4 2 3 2 2 3 2 2 1 2 2 2 3
0 0 0 0 1 1 1 2 2 2 2 2 2 2 2 1 1 0 1 2 3 3 3 4 5 6 5 5 4 3 3 3 2 2 2 3 2 1 2 2 2 2 2
1 1 2 2 2 2 1 1 1 1 1 2 2 2 2 1 1 1 0 1 1 1 3 3 2 2 2 2 2 2 2 1 2 2 2 3 2 2 2 2 2 2 2
2 2 2 2 2 2 1 1 0 2 2 2 2 2 1 1 1 0 1 2 3 2 2 3 3 2 3 3 2 2 1 1 1 2 2 2 2 2 2 2 2 2 2
2 2 3 2 2 2 2 2 1 1 2 2 2 2 3 3 3 2 2 2 3 1 2 3 3 3 3 3 2 2 2 1 1 2 2 2 2 2 2 2 2 2 2
3 2 3 3 2 3 2 2 2 2 1 1 2 4 4 4 4 4 2 1 2 2 3 3 3 3 2 2 2 3 2 1 1 2 2 2 2 2 2 2 2 3 2
3 2 3 3 3 3 2 2 2 2 1 1 0 1 3 3 4 4 3 2 3 3 3 3 3 2 2 2 2 2 2 2 2 2 2 2 2 2 2 2 2 3 3
2 3 4 3 3 3 2 3 2 1 1 1 1 1 0 0 1 1 2 3 3 3 3 3 2 2 2 2 2 2 2 2 2 1 2 2 2 2 3 3 3 2 2
2 2 4 4 3 3 2 3 2 2 2 1 1 0 1 1 2 2 2 3 3 3 2 2 2 2 2 2 2 2 3 3 2 2 2 2 2 2 3 3 3 3 2
3 3 2 3 3 2 2 2 2 2 2 2 1 0 2 2 1 2 2 2 1 2 2 1 2 2 2 2 2 2 2 3 3 3 3 2 2 2 2 3 3 3 2
4 4 3 3 2 3 3 2 3 3 2 2 2 1 1 2 2 1 2 2 2 2 2 2 2 3 3 3 3 3 3 3 3 3 3 3 2 2 2 3 3 3 3
4 4 4 3 2 3 3 3 3 3 3 3 2 2 2 2 3 3 3 3 2 2 2 2 2 4 5 4 3 3 4 4 4 2 3 3 3 3 3 2 3 3 2
3 3 3 3 3 3 3 3 3 3 3 2 2 2 2 2 2 2 2 2 3 3 3 3 3 4 5 6 5 4 4 4 3 4 3 3 3 3 3 3 3 3 3
4 3 3 3 2 2 2 3 3 4 3 3 3 2 2 2 2 2 2 2 3 2 3 3 4 5 5 5 6 5 3 3 4 4 3 3 3 3 4 3 4 3 3
Wind_Direction
177 172 164 163 166 155 133 70 61 38 13 354 347 343 337 345 343 327 308 329 330 315 308 320 317 320 328 320 319 314 309 297 283 293 290 280 258 241 177 214 200 192 197
162 160 171 155 152 154 164 149 144 134 302 320 334 331 322 345 330 323 320 349 339 343 345 349 337 326 333 328 331 327 317 299 282 289 289 288 260 241 210 227 233 223 211
156 163 162 152 150 155 162 162 187 289 295 308 312 309 328 337 332 328 327 333 337 339 343 341 332 339 334 325 324 328 323 319 310 298 296 286 271 259 234 242 252 242 240
146 156 157 159 157 166 176 170 184 219 252 276 310 329 327 330 337 340 325 316 320 326 328 324 337 341 338 324 320 329 320 312 309 303 297 295 293 292 280 269 278 266 266
138 159 159 160 159 170 192 194 194 222 241 260 304 313 311 317 357 353 316 315 335 333 324 326 340 348 351 324 319 326 324 315 311 307 305 311 312 319 307 293 286 280 265
147 160 150 164 158 166 190 197 199 221 258 288 282 308 355 350 4 11 3 338 345 333 322 315 297 326 335 301 288 293 289 288 293 294 299 297 296 300 300 295 290 289 284
151 147 146 158 167 184 213 200 195 202 225 284 323 58 71 9 1 2 344 309 321 314 309 307 308 333 347 328 294 280 277 271 263 268 280 285 288 291 289 293 296 289 276
111 121 145 150 165 172 195 200 166 148 160 173 227 237 228 351 348 336 323 278 276 287 298 312 326 345 343 331 319 315 302 293 274 259 266 279 290 291 270 270 279 290 284
26 58 111 154 174 173 183 195 163 187 230 229 230 224 239 324 314 306 304 274 272 276 283 312 320 319 336 335 317 309 308 304 297 290 269 267 277 285 282 283 281 284 288
306 18 51 100 153 161 164 185 196 216 237 248 256 231 236 256 283 293 286 272 277 280 272 245 36 345 323 323 310 302 294 297 308 306 299 279 265 263 260 248 263 272 276
19 52 63 53 137 152 160 164 189 214 244 253 258 246 236 244 242 240 237 255 281 293 301 307 343 301 283 280 280 279 272 281 289 286 286 280 261 253 250 244 253 262 265
9 54 93 120 259 218 167 181 198 214 235 247 247 254 256 241 230 226 220 229 264 286 299 314 344 309 279 280 277 287 285 284 275 279 283 287 287 278 272 262 249 245 245
335 357 63 312 299 286 227 210 219 226 244 247 240 243 254 251 235 227 218 226 248 261 290 316 316 291 280 276 276 284 283 269 272 285 293 290 281 283 283 281 269 255 254
17 315 278 247 257 263 251 234 234 243 248 258 263 270 270 283 9 135 217 236 244 254 273 290 282 274 271 274 286 274 248 259 269 279 295 296 294 288 280 268 258 254 264
309 265 253 247 244 253 261 305 280 306 253 255 282 291 300 314 313 348 333 298 306 313 308 280 274 273 267 261 263 262 258 277 289 297 307 312 316 316 311 309 303 284 270
289 270 265 258 243 226 213 255 63 209 214 204 232 269 307 291 244 269 5 327 313 327 315 288 289 286 288 287 280 276 257 268 300 304 309 313 319 321 325 327 314 296 285
279 282 280 277 270 255 242 234 234 225 224 225 229 240 242 277 288 276 293 320 307 295 270 282 287 291 289 288 295 298 300 295 287 296 306 311 315 316 320 320 319 313 302
279 269 280 279 276 277 273 268 257 247 229 211 227 233 230 238 252 252 244 343 301 257 260 275 280 280 283 300 310 307 301 301 292 295 301 306 313 314 317 321 320 319 311
303 298 293 289 286 289 285 281 281 282 279 273 234 222 236 237 246 255 221 238 263 275 276 278 284 292 299 301 300 298 303 305 310 303 306 313 319 321 321 320 325 332 326
275 280 290 292 291 292 296 288 290 300 298 291 291 314 134 220 251 221 219 248 260 268 282 288 296 307 311 306 299 302 302 302 299 303 317 319 320 324 324 320 329 338 334
286 267 263 281 292 298 299 296 301 305 303 299 319 14 169 251 276 274 240 243 258 271 278 295 313 311 304 305 325 324 325 336 344 339 337 329 326 329 328 331 335 335 331
299 289 277 281 289 303 302 298 297 294 293 303 354 77 219 262 303 336 321 286 282 295 302 306 314 327 343 348 346 340 344 358 353 338 334 330 329 329 330 327 323 324 330
309 317 305 301 300 293 286 302 314 320 321 325 331 337 324 316 330 349 335 337 354 350 347 3 0 349 360 12 10 14 11 3 343 326 323 325 324 317 309 314 320 323 323
326 326 320 318 315 319 335 343 340 331 329 337 353 1 357 342 345 4 10 9 359 3 359 5 16 10 14 17 19 24 21 4 337 325 321 317 318 318 315 317 316 315 320
323 326 331 341 343 343 346 344 338 334 337 352 7 3 353 342 344 1 6 3 356 357 4 8 19 24 20 19 25 32 26 15 5 346 328 324 321 317 320 324 325 324 330
323 325 331 340 346 344 342 341 341 345 353 2 4 1 356 349 354 5 17 4 355 2 10 18 24 28 26 27 36 40 34 11 353 342 324 323 323 329 329 325 325 332 340